| time (UTC) | temp F | wind direction | speed MPH | gust MPH | rain 1hr in | rain 24hr in | rain mn in | humidity % | barometer mb |
| 20260510112546 | 54 | 74 | 0.0 | 2.0 | 0.00 | 0.00 | 0.00 | 71 | 1012.6 |
| 20260510111556 | 54 | 335 | 0.0 | 1.0 | 0.00 | 0.00 | 0.00 | 71 | 1012.4 |
| 20260510110522 | 54 | 333 | 0.0 | 3.0 | 0.00 | 0.00 | 0.00 | 71 | 1012.4 |
| 20260510105517 | 54 | 13 | 0.0 | 0.0 | 0.00 | 0.00 | 0.00 | 75 | 1012.0 |
| 20260510104450 | 55 | 15 | 0.0 | 2.0 | 0.00 | 0.00 | 0.00 | 75 | 1011.8 |
| 20260510103445 | 55 | 13 | 0.0 | 2.0 | 0.00 | 0.00 | 0.00 | 75 | 1011.7 |
| 20260510102501 | 55 | 24 | 0.0 | 1.0 | 0.00 | 0.00 | 0.00 | 75 | 1011.4 |
| 20260510100407 | 56 | 24 | 0.0 | 1.0 | 0.00 | 0.00 | 0.00 | 76 | 1011.4 |
| 20260510095342 | 56 | 26 | 0.0 | 0.0 | 0.00 | 0.00 | 0.00 | 73 | 1010.9 |
| 20260510094401 | 56 | 326 | 0.0 | 0.0 | 0.00 | 0.02 | 0.00 | 73 | 1010.8 |
| 20260510093409 | 56 | 326 | 0.0 | 0.0 | 0.00 | 0.02 | 0.00 | 73 | 1010.5 |
| 20260510092418 | 57 | 326 | 0.0 | 2.0 | 0.00 | 0.02 | 0.00 | 73 | 1010.5 |
| 20260510091411 | 57 | 331 | 0.0 | 2.0 | 0.00 | 0.03 | 0.00 | 73 | 1010.3 |
| 20260510090420 | 58 | 333 | 0.0 | 0.0 | 0.00 | 0.03 | 0.00 | 72 | 1010.1 |
| 20260510085351 | 58 | 336 | 0.0 | 2.0 | 0.00 | 0.03 | 0.00 | 70 | 1009.9 |
| 20260510084339 | 58 | 348 | 0.0 | 2.0 | 0.00 | 0.03 | 0.00 | 70 | 1009.7 |
| 20260510083316 | 58 | 324 | 0.0 | 2.0 | 0.00 | 0.03 | 0.00 | 69 | 1009.3 |
| 20260510081129 | 59 | 299 | 0.0 | 3.0 | 0.00 | 0.03 | 0.00 | 71 | 1009.2 |
| 20260510080147 | 59 | 273 | 0.0 | 0.0 | 0.00 | 0.03 | 0.00 | 75 | 1009.2 |
| 20260510075147 | 60 | 273 | 0.0 | 2.0 | 0.00 | 0.03 | 0.00 | 76 | 1008.9 |
| 20260510074200 | 60 | 274 | 0.0 | 3.0 | 0.00 | 0.04 | 0.00 | 77 | 1009.0 |
| 20260510073146 | 60 | 277 | 0.0 | 1.0 | 0.00 | 0.04 | 0.00 | 76 | 1009.1 |
| 20260510072143 | 60 | 277 | 0.0 | 0.0 | 0.00 | 0.04 | 0.00 | 75 | 1009.1 |
| 20260510070105 | 61 | 277 | 0.0 | 3.0 | 0.00 | 0.04 | 0.00 | 73 | 1008.8 |
| 20260510065118 | 61 | 277 | 1.0 | 3.0 | 0.00 | 0.06 | 0.00 | 73 | 1008.9 |
| 20260510064107 | 61 | 261 | 1.0 | 3.0 | 0.00 | 0.06 | 0.00 | 72 | 1008.8 |
| 20260510063121 | 61 | 284 | 1.0 | 3.0 | 0.00 | 0.08 | 0.00 | 72 | 1008.7 |
| 20260510062103 | 61 | 309 | 0.0 | 3.0 | 0.00 | 0.09 | 0.00 | 73 | 1008.8 |
| 20260510055938 | 62 | 264 | 1.0 | 8.0 | 0.00 | 0.11 | 0.00 | 73 | 1008.9 |
| 20260510054936 | 62 | 244 | 2.0 | 9.0 | 0.00 | 0.11 | 0.00 | 73 | 1008.9 |
| 20260510053905 | 62 | 273 | 2.0 | 9.0 | 0.00 | 0.11 | 0.00 | 76 | 1009.1 |
| 20260510051821 | 60 | 194 | 0.0 | 2.0 | 0.00 | 0.12 | 0.00 | 81 | 1009.0 |
| 20260510050846 | 60 | 194 | 0.0 | 2.0 | 0.00 | 0.12 | 0.00 | 83 | 1008.6 |
| 20260510045848 | 60 | 194 | 0.0 | 0.0 | 0.00 | 0.12 | 0.00 | 82 | 1008.5 |
| 20260510044906 | 61 | 194 | 0.0 | 0.0 | 0.00 | 0.12 | 0.00 | 81 | 1008.4 |
| 20260510041719 | 61 | 194 | 0.0 | 0.0 | 0.00 | 0.13 | 0.00 | 75 | 1008.1 |
| 20260510040654 | 62 | 194 | 0.0 | 0.0 | 0.00 | 0.13 | 0.00 | 74 | 1008.0 |
| 20260510035636 | 62 | 194 | 0.0 | 0.0 | 0.00 | 0.13 | 0.13 | 73 | 1007.9 |
| 20260510034626 | 62 | 194 | 0.0 | 2.0 | 0.00 | 0.13 | 0.13 | 72 | 1007.7 |
| 20260510033604 | 62 | 194 | 0.0 | 2.0 | 0.00 | 0.13 | 0.13 | 72 | 1007.7 |
| 20260510032628 | 63 | 194 | 0.0 | 1.0 | 0.00 | 0.14 | 0.13 | 72 | 1007.6 |
| 20260510031650 | 63 | 194 | 0.0 | 1.0 | 0.00 | 0.14 | 0.13 | 71 | 1007.6 |
| 20260510030633 | 63 | 194 | 0.0 | 0.0 | 0.00 | 0.14 | 0.13 | 70 | 1007.5 |
| 20260510022221 | 64 | 193 | 0.0 | 1.0 | 0.00 | 0.14 | 0.13 | 67 | 1007.3 |
| 20260510021240 | 65 | 192 | 0.0 | 1.0 | 0.00 | 0.14 | 0.13 | 67 | 1007.1 |
| 20260510015133 | 65 | 209 | 0.0 | 2.0 | 0.00 | 0.14 | 0.13 | 66 | 1006.9 |
| 20260510014103 | 65 | 209 | 0.0 | 0.0 | 0.00 | 0.14 | 0.13 | 65 | 1006.6 |
| 20260510013125 | 66 | 209 | 0.0 | 0.0 | 0.00 | 0.14 | 0.13 | 64 | 1006.5 |
| 20260510012052 | 66 | 209 | 0.0 | 0.0 | 0.00 | 0.14 | 0.13 | 63 | 1006.3 |
| 20260510011027 | 67 | 209 | 0.0 | 0.0 | 0.00 | 0.14 | 0.13 | 62 | 1006.3 |
| 20260510010041 | 67 | 209 | 0.0 | 1.0 | 0.00 | 0.14 | 0.13 | 60 | 1006.2 |
| 20260510005018 | 68 | 209 | 0.0 | 2.0 | 0.00 | 0.15 | 0.13 | 59 | 1006.1 |
| 20260510003948 | 68 | 209 | 0.0 | 0.0 | 0.00 | 0.15 | 0.13 | 59 | 1006.0 |
| 20260510003010 | 68 | 214 | 0.0 | 1.0 | 0.00 | 0.15 | 0.13 | 58 | 1005.9 |
| 20260510002011 | 69 | 214 | 0.0 | 3.0 | 0.00 | 0.15 | 0.13 | 58 | 1005.8 |
| 20260510000942 | 69 | 213 | 0.0 | 2.0 | 0.00 | 0.15 | 0.13 | 57 | 1005.6 |
| 20260509235949 | 70 | 215 | 0.0 | 1.0 | 0.00 | 0.15 | 0.13 | 56 | 1005.6 |
| 20260509235003 | 70 | 217 | 1.0 | 6.0 | 0.00 | 0.15 | 0.13 | 55 | 1005.4 |
| 20260509232840 | 71 | 269 | 1.0 | 7.0 | 0.00 | 0.15 | 0.13 | 54 | 1005.4 |
| 20260509231834 | 71 | 220 | 1.0 | 6.0 | 0.00 | 0.15 | 0.13 | 54 | 1005.4 |
| 20260509230841 | 71 | 238 | 1.0 | 7.0 | 0.00 | 0.15 | 0.13 | 54 | 1005.3 |
| 20260509225813 | 71 | 217 | 1.0 | 7.0 | 0.00 | 0.15 | 0.13 | 54 | 1005.3 |
| 20260509224827 | 71 | 221 | 2.0 | 7.0 | 0.00 | 0.15 | 0.13 | 54 | 1005.3 |
| 20260509223839 | 72 | 192 | 1.0 | 8.0 | 0.00 | 0.15 | 0.13 | 54 | 1005.2 |
| 20260509222820 | 72 | 208 | 2.0 | 8.0 | 0.00 | 0.15 | 0.13 | 52 | 1005.2 |
| 20260509221804 | 72 | 203 | 1.0 | 6.0 | 0.00 | 0.15 | 0.13 | 52 | 1005.1 |
| 20260509220749 | 72 | 180 | 1.0 | 5.0 | 0.00 | 0.15 | 0.13 | 53 | 1005.1 |
| 20260509215753 | 72 | 204 | 2.0 | 9.0 | 0.00 | 0.15 | 0.13 | 54 | 1005.1 |
| 20260509213620 | 72 | 228 | 1.0 | 9.0 | 0.00 | 0.15 | 0.13 | 55 | 1005.1 |
| 20260509212610 | 72 | 221 | 2.0 | 9.0 | 0.00 | 0.15 | 0.13 | 56 | 1005.2 |
| 20260509211627 | 72 | 213 | 2.0 | 7.0 | 0.00 | 0.15 | 0.13 | 55 | 1005.5 |
| 20260509210624 | 72 | 241 | 2.0 | 7.0 | 0.00 | 0.15 | 0.13 | 55 | 1005.3 |
| 20260509205624 | 72 | 165 | 1.0 | 5.0 | 0.00 | 0.15 | 0.13 | 56 | 1005.4 |
| 20260509204624 | 72 | 207 | 1.0 | 3.0 | 0.00 | 0.15 | 0.13 | 57 | 1005.5 |
| 20260509203624 | 72 | 211 | 1.0 | 5.0 | 0.00 | 0.15 | 0.13 | 58 | 1005.5 |
| 20260509201549 | 71 | 206 | 2.0 | 9.0 | 0.00 | 0.15 | 0.13 | 58 | 1005.7 |
| 20260509195450 | 70 | 218 | 2.0 | 8.0 | 0.00 | 0.15 | 0.13 | 59 | 1006.1 |
| 20260509194450 | 70 | 200 | 2.0 | 8.0 | 0.00 | 0.15 | 0.13 | 59 | 1006.2 |
| 20260509193501 | 70 | 215 | 2.0 | 8.0 | 0.00 | 0.15 | 0.13 | 61 | 1006.1 |
| 20260509192502 | 70 | 219 | 1.0 | 6.0 | 0.00 | 0.15 | 0.13 | 60 | 1006.1 |
| 20260509191443 | 70 | 210 | 1.0 | 4.0 | 0.00 | 0.15 | 0.13 | 59 | 1006.2 |
| 20260509190421 | 70 | 229 | 1.0 | 6.0 | 0.00 | 0.15 | 0.13 | 62 | 1006.2 |
| 20260509185348 | 70 | 228 | 1.0 | 6.0 | 0.00 | 0.15 | 0.13 | 60 | 1006.4 |
| 20260509184357 | 69 | 275 | 1.0 | 6.0 | 0.00 | 0.15 | 0.13 | 61 | 1006.4 |
| 20260509183412 | 69 | 274 | 1.0 | 6.0 | 0.00 | 0.15 | 0.13 | 62 | 1006.6 |
| 20260509182401 | 69 | 202 | 1.0 | 4.0 | 0.00 | 0.15 | 0.13 | 62 | 1006.6 |
| 20260509180256 | 68 | 207 | 2.0 | 7.0 | 0.00 | 0.15 | 0.13 | 63 | 1006.7 |
| 20260509175311 | 68 | 198 | 1.0 | 6.0 | 0.00 | 0.15 | 0.13 | 65 | 1006.8 |
| 20260509173214 | 67 | 270 | 1.0 | 8.0 | 0.00 | 0.15 | 0.13 | 66 | 1007.1 |
| 20260509172153 | 67 | 287 | 1.0 | 6.0 | 0.00 | 0.15 | 0.13 | 71 | 1007.2 |
| 20260509171147 | 66 | 210 | 2.0 | 6.0 | 0.00 | 0.15 | 0.13 | 70 | 1007.1 |
| 20260509170128 | 65 | 218 | 1.0 | 8.0 | 0.00 | 0.15 | 0.13 | 70 | 1007.3 |
| 20260509165137 | 65 | 185 | 1.0 | 8.0 | 0.00 | 0.15 | 0.13 | 69 | 1007.4 |
| 20260509164138 | 65 | 223 | 1.0 | 7.0 | 0.00 | 0.15 | 0.13 | 70 | 1007.3 |
| 20260509163130 | 65 | 177 | 1.0 | 6.0 | 0.00 | 0.15 | 0.13 | 71 | 1007.3 |
| 20260509161000 | 64 | 242 | 1.0 | 5.0 | 0.00 | 0.15 | 0.13 | 76 | 1007.2 |
| 20260509160023 | 63 | 236 | 1.0 | 5.0 | 0.00 | 0.15 | 0.13 | 76 | 1007.3 |
| 20260509155002 | 62 | 200 | 1.0 | 6.0 | 0.00 | 0.15 | 0.13 | 80 | 1007.2 |
| 20260509152841 | 62 | 194 | 1.0 | 6.0 | 0.00 | 0.15 | 0.13 | 80 | 1007.1 |
| 20260509151903 | 61 | 123 | 1.0 | 7.0 | 0.00 | 0.15 | 0.13 | 80 | 1007.2 |
| 20260509150901 | 62 | 230 | 1.0 | 7.0 | 0.00 | 0.15 | 0.13 | 80 | 1007.2 |
| 20260509145848 | 61 | 231 | 0.0 | 6.0 | 0.00 | 0.15 | 0.13 | 83 | 1007.0 |
| 20260509144844 | 61 | 250 | 0.0 | 7.0 | 0.00 | 0.15 | 0.13 | 84 | 1006.8 |
| 20260509143901 | 60 | 224 | 1.0 | 7.0 | 0.00 | 0.15 | 0.13 | 86 | 1006.6 |
| 20260509142923 | 59 | 311 | 1.0 | 4.0 | 0.00 | 0.15 | 0.13 | 87 | 1006.7 |
| 20260509141926 | 59 | 171 | 0.0 | 4.0 | 0.00 | 0.15 | 0.13 | 90 | 1006.7 |
| 20260509140929 | 58 | 204 | 0.0 | 4.0 | 0.00 | 0.15 | 0.13 | 91 | 1006.8 |
| 20260509135918 | 57 | 274 | 0.0 | 3.0 | 0.00 | 0.15 | 0.13 | 92 | 1006.9 |
| 20260509134848 | 57 | 201 | 0.0 | 3.0 | 0.00 | 0.15 | 0.13 | 93 | 1007.0 |
| 20260509133904 | 56 | 275 | 0.0 | 3.0 | 0.00 | 0.15 | 0.13 | 94 | 1007.2 |
| 20260509132835 | 56 | 213 | 0.0 | 1.0 | 0.00 | 0.15 | 0.13 | 95 | 1007.1 |
| 20260509130719 | 55 | 252 | 0.0 | 0.0 | 0.00 | 0.15 | 0.13 | 95 | 1007.1 |
| 20260509125741 | 55 | 252 | 0.0 | 0.0 | 0.00 | 0.15 | 0.13 | 95 | 1007.0 |
| 20260509124708 | 54 | 253 | 0.0 | 0.0 | 0.00 | 0.15 | 0.13 | 95 | 1007.0 |
| 20260509123731 | 54 | 253 | 0.0 | 0.0 | 0.00 | 0.15 | 0.13 | 95 | 1007.2 |
| 20260509122741 | 54 | 253 | 0.0 | 0.0 | 0.00 | 0.15 | 0.13 | 95 | 1007.4 |
| 20260509121803 | 53 | 253 | 0.0 | 0.0 | 0.00 | 0.15 | 0.13 | 95 | 1007.4 |
| 20260509120740 | 53 | 253 | 0.0 | 0.0 | 0.00 | 0.15 | 0.13 | 95 | 1007.1 |
| 20260509114631 | 53 | 253 | 0.0 | 0.0 | 0.00 | 0.14 | 0.12 | 95 | 1007.0 |